sat.trackr.live / text

‹ back to catalog

STARLINK-1871

NORAD 47157 · 2020-088AM

PAYLOAD ACTIVE UNKNOWN

§ Identity

Operator
Country
US
Launch date
2020-11-25
Launch site
AFETR
Launch vehicle
Mass (kg)
RCS (m²)

Purposes: comms

External: N2YO · Heavens-Above · Gunter

§ Orbital elements

Epoch: 2026-05-25T02:55:05.401056Z

Period
93.84 min
Inclination
53.1572°
Eccentricity
0.0002076
Mean motion
15.34561600 rev/d
Perigee alt
460.8 km
Apogee alt
463.6 km
Semi-major
6,840.4 km
B*
1.4198e-3
RAAN
300.5047°
Arg perigee
288.5169°
Mean anomaly
71.5608°
Rev number
30,363

§ Raw data

STARLINK-18711 47157U 20088AM  26145.12159029  .00048152  00000+0  14198-2 0  99932 47157  53.1572 300.5047 0002076 288.5169  71.5608 15.34561600303635

JSON: /api/v1/satellites/47157 · /tle

For live sub-satellite position, see the globe view (requires WebGL).

§ Visibility from observer

Set your observer location to see the next 7 days of passes ≥ 10°. The values pass through the URL so the page stays shareable.

No JS? Fill the form by hand. The geolocation button needs JavaScript.